Regional Weather Roundup
Issued by NWS

Home | Current Version | Previous Version | Text Only | Print | Product List | Glossary Off
Versions: 1 2 3 4 5 6 7 8 9 10 11 12 13 14 15 16 17 18 19 20 21 22 23 24 25 26 27 28 29 30 31 32 33 34 35 36 37 38 39 40 41 42 43 44 45 46 47 48 49 50

781
ASUS44 KMEG 190410
RWRTN
TENNESSEE HOURLY STATE WEATHER ROUNDUP
NATIONAL WEATHER SERVICE MEMPHIS TN
1100 PM CDT WED OCT 18 2017

TNZ002-004-019-021-049-052-054-088>092-190500-
WEST TENNESSEE

CITY           SKY/WX    TMP DP  RH WIND       PRES   REMARKS
MEMPHIS INTL   CLEAR     61  47  59 S5        30.20R
NWS MEMPHIS      N/A     56 N/A N/A MISG        N/A
JACKSON        CLEAR     47  46  97 CALM      30.21S
SOMERVILLE     CLEAR     52  48  87 SE5       30.19S
COVINGTON      CLEAR     48  46  93 CALM      30.20S
UNION CITY     CLEAR     50  45  81 SE5       30.19S
BOLIVAR        CLEAR     46  45  93 CALM      30.21R
HUNTINGDON     CLEAR     50  46  87 CALM      30.20S
LEXINGTON      CLEAR     46  46 100 CALM      30.22S
SELMER         CLEAR     55  46  71 S7        30.22S
SAVANNAH       CLEAR     46  46 100 CALM      30.22F
$$

TNZ008-025-027-028-033-062-065-066-190500-
NORTH MIDDLE TENNESSEE

CITY           SKY/WX    TMP DP  RH WIND       PRES   REMARKS
NASHVILLE      CLEAR     51  45  79 S6        30.24S
PORTLAND       CLEAR     50  45  81 S5        30.22F HAZE
CLARKSVILLE    CLEAR     51  46  83 SE3       30.21S
SMYRNA         CLEAR     46  44  93 SE3       30.26S
COOKEVILLE     CLEAR     43  41  93 CALM      30.25F
GALLATIN       CLEAR     46  45  93 CALM      30.26S
CROSSVILLE     CLEAR     45  42  89 CALM      30.29F
$$

TNZ061-075-076-078-094-096-097-190500-
SOUTH MIDDLE TENNESSEE

CITY           SKY/WX    TMP DP  RH WIND       PRES   REMARKS
FAYETTEVILLE   CLEAR     52  46  82 SE3       30.26S
TULLAHOMA      CLEAR     46  43  87 CALM      30.27F
WINCHESTER     CLEAR     46  46 100 CALM        N/A
COLUMBIA       CLEAR     46  45  93 CALM      30.23S
SHELBYVILLE    CLEAR     50  46  87 CALM      30.26S
$$

TNZ017-018-042-046-047-190500-
NORTHEAST TENNESSEE

CITY           SKY/WX    TMP DP  RH WIND       PRES   REMARKS
TRI CITIES     PTCLDY    45  44  97 N3        30.30S
ELIZABETHTON   CLEAR     46  43  87 CALM      30.31F
$$

TNZ012-013-036-069-073-074-190500-
CENTRAL EAST TENNESSEE

CITY           SKY/WX    TMP DP  RH WIND       PRES   REMARKS
KNOXVILLE      CLEAR     53  50  89 S3        30.28R
OAK RIDGE      CLEAR     50  50 100 CALM      30.30S
DOWNTOWN KNOXV CLEAR     50  50 100 CALM      30.29S FOG
GATLINBURG     CLEAR     48  46  93 CALM      30.29S
MORRISTOWN     CLEAR     52  46  82 CALM      30.28S
JACKSBORO      CLEAR     46  45  93 CALM      30.32S
$$

TNZ083-085-099-190500-
SOUTHEAST TENNESSEE

CITY           SKY/WX    TMP DP  RH WIND       PRES   REMARKS
CHATTANOOGA    CLEAR     51  48  89 CALM      30.30R
DAYTON         CLEAR     48  48 100 CALM      30.28S
$$

SKY/WX REPORTED AS FAIR MEANS FEW OR NO CLOUDS BELOW
12 THOUSAND FEET.





USA.gov is the U.S. government's official web portal to all federal, state and local government web resources and services.